Terminal Aerodrome Forecast
Issued by NWS

Home | Current Version | Previous Version | Text Only | Print | Product List | Glossary On
Versions: 1 2 3 4 5 6 7 8 9 10 11 12 13 14 15 16
599
FTUS46 KHNX 190243 AAA
TAFBFL
TAF AMD
KBFL 190243Z 1903/1924 11006KT P6SM -RA SCT060 OVC080
     FM190600 12012G18KT 3SM -RA BR SCT030 OVC050
      TEMPO 1908/1912 18012G20KT 2SM SHRA BR BKN030 OVC050
     FM191500 14010G20KT 3SM -SHRA BR SCT015 OVC030
     FM192000 16008KT 4SM -SHRA BKN025 OVC045 PROB30 1921/1924 -TSRA
      BKN040CB=

USA.gov is the U.S. government's official web portal to all federal, state and local government web resources and services.